Regional Weather Roundup
Issued by NWS Charleston, WV

Home | Current Version | Previous Version | Graphics & Text | Print | Product List | Glossary On
Versions: 1 2 3 4 5 6 7 8 9 10 11 12 13 14 15 16 17 18 19 20 21 22 23 24 25 26 27 28 29 30 31 32 33 34 35 36 37 38 39 40 41 42 43 44 45 46 47 48 49 50
000
ASUS41 KRLX 231910
RWRRLX
West Virginia Regional Weather Roundup
National Weather Service Charleston WV
300 PM EDT THU MAR 23 2017

Note: "fair" indicates few or no clouds below 12,000 feet with no
significant weather and/or obstructions to visibility.

WVZ003-232000-
Northern Panhandle of West Virginia

CITY           SKY/WX    TMP DP  RH WIND       PRES   REMARKS
WHEELING       SUNNY     47   2  15 E8        30.42F
$$

WVZ009-232000-
Northwest West Virginia

CITY           SKY/WX    TMP DP  RH WIND       PRES   REMARKS
PARKERSBURG    SUNNY     54  12  18 VRB6      30.42F
$$

WVZ006-232000-
Western West Virginia

CITY           SKY/WX    TMP DP  RH WIND       PRES   REMARKS
HUNTINGTON     SUNNY     57  22  25 VRB3      30.38F
$$

WVZ015-232000-
West Central West Virginia

CITY           SKY/WX    TMP DP  RH WIND       PRES   REMARKS
CHARLESTON     SUNNY     59  22  24 MISG      30.38F
$$

WVZ022-031-232000-
North Central West Virginia

CITY           SKY/WX    TMP DP  RH WIND       PRES   REMARKS
CLARKSBURG     SUNNY     52   2  13 VRB3      30.41F
MORGANTOWN     SUNNY     51   9  18 NE7       30.43F
$$

WVZ025-035-042-045-232000-
Southern West Virginia

CITY           SKY/WX    TMP DP  RH WIND       PRES   REMARKS
BECKLEY        SUNNY     52  20  28 SE12      30.39F
LOGAN            N/A     59  23  25 CALM      30.36F
BLUEFIELD      SUNNY     50  17  27 SE6       30.40F
LEWISBURG      SUNNY     49  15  25 CALM      30.43S
$$

WVZ047-232000-
Northern Mountains of West Virginia

CITY           SKY/WX    TMP DP  RH WIND       PRES   REMARKS
ELKINS         SUNNY     53   8  16 VRB5      30.39F
$$

WVZ052-232000-
Eastern Panhandle of West Virginia

CITY           SKY/WX    TMP DP  RH WIND       PRES   REMARKS
MARTINSBURG    SUNNY     43   3  19 CALM      30.53F
PETERSBURG     SUNNY     51  17  26 E5        30.48F
$$



USA.gov is the U.S. government's official web portal to all federal, state and local government web resources and services.